200 serials | winzip system utilities suite 2.0 registration key

Date Name Success Rate
2011-09-08 12:41:14 Registration Suite 1.0 60%
2011-09-08 12:41:14 Registration Suite v1.0 60%
2011-09-08 11:16:56 Iolo System Mechanic v3.7i - internet and system utilities 60%
2011-09-08 10:42:00 DameWare NT Utilities Software Suite v4.4.0.0 0%
2011-09-08 11:21:54 KMCS Utilities Suite DELUXE 2002 1.0 0%
2011-09-08 11:21:54 KMCS Utilities Suite DELUXE 2002 v1.0 0%
2009-10-22 23:50:03 System Suite V8.0 0%
2009-10-17 06:32:55 System Suite V8.0 Professional 0%
2009-10-22 23:48:52 MS OFFICE SYSTEM SUITE 80%
2009-10-22 23:50:26 VCOM System Suite Pro V8.0 100%
2011-09-08 13:00:58 System Suite 6 Professional 6 100%
2012-12-12 03:10:20 Avanquest System Suite Pro v10.3.34 0%
2009-10-17 06:34:51 VCOM System Suite Pro V8.0 Working 0%
2009-10-22 23:48:30 KMCS Deluxe System Suite 2 0%
2011-09-08 11:21:53 KMCS Deluxe System Suite 2 0%
2011-09-08 11:21:54 KMCS Deluxe System Suite 2 by LasH 0%
2011-09-08 11:21:54 KMCS Deluxe System Suite.2002 Release 1 1.0.0 0%
2011-09-08 11:21:54 KMCS Deluxe System Suite.2002 Release 1 v1.0.0 by HERiTAGE 0%
2011-09-08 13:20:04 WinZip v55 for Windows add to winini: WinZip 20%
2012-12-13 18:49:22 WinZip 14.5 Professional. Works also with Winzip 14 20%
2011-09-08 10:42:09 DAS Registration 1.5.2 66%
2011-09-08 10:42:09 DAS Registration For CW5 0%
2011-09-08 10:42:09 DAS Registration v1.5.2 0%
2009-10-17 06:27:02 Lazarus Registration DLL V1.0 59%
2009-10-22 23:48:48 MemoriesonTV Registration 0%
2009-10-22 23:49:42 Registration Wizard 40%
2011-09-08 10:06:47 AnetHelpTool v4.02 Registration 52%
2011-09-08 10:22:13 ByeLines Registration 60%
2011-09-08 10:57:42 Ftgate Registration 63%
2011-09-08 11:15:16 Infodex v2.10 Registration 0%
2011-09-08 11:25:08 Lazarus Registration DLL v1.0 0%
2011-09-08 11:27:46 Mac Opener v3.0 Registration 57%
2011-09-08 11:32:59 mIRC v4.5+ Registration 60%
2011-09-08 11:32:59 mIRC v4.52 Registration 60%
2011-09-08 12:37:02 Quant v2.0 Registration 0%
2011-09-08 12:41:14 Registration Wizard Pro 5.01 46%
2011-09-08 12:41:14 Registration Wizard Pro v5.01 60%
2011-09-08 13:18:59 WinHacker 95 v2.02 Registration 57%
2012-12-13 05:12:00 Registration Key : 526EFEF086E09600449E667EA2DAE8E2E6D642BC 83%
2009-10-22 23:27:21 Ardamax Keylogger 2.9 Registration 56%
2009-10-22 23:48:49 Microsoft Registration Hacker - 39%
2009-10-22 23:49:57 SoudForge ALL (No Registration Requiered) 0%
2009-10-22 23:50:26 Valve's Registration Armor Key-Gen 60%
2011-09-08 10:21:42 Browserola v1.01 Temp. Registration 0%
2011-09-08 10:56:11 FontLook v3.1 Registration Code 51%
2011-09-08 11:31:51 Microsoft Registration Hacker 0%
2011-09-08 11:31:51 Microsoft Registration Hacker - 0%
2011-09-08 11:31:51 Microsoft Registration HackerMSREGHACK 0%
2011-09-08 11:32:07 Microstation v5.xx.xx & 95 FULL REGISTRATION 48%
2011-09-08 11:42:43 Nic O'Matic 1.6 Registration Code 50%
2011-09-08 11:42:43 Nic O'Matic v1.6 Registration Code 55%
2011-09-08 12:34:57 PolyTrans V1.2E Registration Activator CD-Key 62%
2011-09-08 12:34:57 PolyView v2.9b16 Registration 0%
2011-09-08 12:54:09 Time Registration (German) 1.10 0%
2011-09-08 12:59:30 Super Collapse Registration 100%
2011-09-08 13:23:15 Yipe! II for Windows Registration #154 0%
2012-12-13 08:49:53 Softwarenetz Time Registration v1.10 0%
2012-12-13 08:49:56 Softwarenetz Time Registration v1.14 0%
2012-12-13 15:34:10 Valve's Registration Armor Key-Gen 0%
2009-10-22 23:48:17 Internet Download Manager Registration 50%
2011-09-08 10:25:56 Cheyenne Bitware V4.0 Registration Number 60%
2011-09-08 11:31:51 Microsoft Registration Hacker MSREGHACK 80%
2011-09-08 11:31:51 Microsoft Visual Basic 5 registration cd key 72%
2011-09-08 12:54:14 TimeSlips 10.5 enterprise - with registration code! 0%
2012-12-12 08:07:32 Download avast 5.0.667 Antivirus registration 0%
2012-12-13 05:12:00 Registration Code For PDFZilla Giveaway 0%
2012-12-13 05:12:00 Registration key for x-3gp-video-converter-38540 54%
2012-12-13 13:12:40 Total Image Converter Registration Key 57%
2011-09-08 11:30:16 MediaBlaze 98 v1.01 Win95/NT User: delphic Registration 0%
2012-12-13 05:12:00 Registration code:-826510-16101-266644 51%
2009-10-22 23:49:02 Norton Internet Security 2005 Registration Guide 0%
2011-09-08 09:58:40 Acoustica Mixcraft v1.10 Build 15 Registration Info by MaBi 60%
2012-12-12 19:40:26 Microsoft Visual Basic 2008 Express Edition Registration key 55%
2009-10-22 23:50:38 WinZip And WinZip SE Version 8 To 9 And 2 0%
2011-09-08 13:19:59 Winzip & Winzip Self Extractor 63%
2011-09-08 13:20:04 WinZip v6.1 About Winzip + CTRL+R 0%
2011-09-08 11:41:08 Nero OEM suite OEM suite Latest Version 72%
2009-10-17 06:35:48 WinZip V9.0 51%
2009-10-22 23:50:38 WinZip 94%
2009-10-22 23:50:38 Winzip 0%
2009-10-22 23:50:38 Winzip 1.11 100%
2009-10-22 23:50:38 WinZip 10 0%
2009-10-22 23:50:38 Winzip 10 Pro 0%
2009-10-22 23:50:38 WinZIP 10.0 0%
2009-10-22 23:50:38 WinZIP 10.0 Pro 0%
2009-10-22 23:50:38 Winzip 11 80%
2009-10-22 23:50:38 Winzip 11 Pro 0%
2009-10-22 23:50:38 Winzip 11.0 0%
2009-10-22 23:50:38 Winzip 11.0 73.47e 0%
2009-10-22 23:50:38 WinZip 11.0 Pro 0%
2009-10-22 23:50:38 Winzip 11.1 0%
2009-10-22 23:50:38 WinZIP 11.1 ESP 0%
2009-10-22 23:50:38 Winzip 11.1 Pro 0%
2009-10-22 23:50:38 Winzip 11.1 Pro & STD 0%
2009-10-22 23:50:38 Winzip 11.1 Pro And Std 0%
2009-10-22 23:50:38 WinZip 12 Pro 73%
2009-10-22 23:50:38 Winzip 12.0 0%
2009-10-22 23:50:38 WinZip 12.0 100%
2009-10-22 23:50:38 WinZip 12.0 Pro 0%
2009-10-22 23:50:38 WinZip 12.0 Pro 0%
2009-10-22 23:50:38 WinZip 12.1 20%
2009-10-22 23:50:38 Winzip 12.1 Pro 100%
2009-10-22 23:50:38 Winzip 12.p 0%
2009-10-22 23:50:38 Winzip 6.x 7.x 8.x 0%
2009-10-22 23:50:38 Winzip 8 Through 9 0%
2009-10-22 23:50:38 WinZip 8, 8.1 0%
2009-10-22 23:50:38 WINZIP 8.1 0%
2009-10-22 23:50:38 WinZip 8.1 SR-1 0%
2009-10-22 23:50:38 Winzip 8.2 0%
2009-10-22 23:50:38 WinZip 9 SR-1 0%
2009-10-22 23:50:38 WinZip 9.0 0%
2009-10-22 23:50:38 Winzip 9.0 Us 0%
2009-10-22 23:50:38 Winzip 9.0b 0%
2009-10-22 23:50:38 WinZIP 9.1 0%
2009-10-22 23:50:38 Winzip 9x (For All) 0%
2009-10-22 23:50:38 WinZip Pro 10 0%
2009-10-22 23:50:38 WinZip Pro 11 0%
2009-10-22 23:50:38 Winzip Pro 11.2 80%
2009-10-22 23:50:38 Winzip Pro 12 0%
2009-10-22 23:50:38 WinZip Pro V.12 0%
2009-10-22 23:50:38 Winzip Pro V12 0%
2009-10-22 23:50:38 WinZip Pro V12.0 0%
2009-10-22 23:50:38 Winzip V.8.1 0%
2009-10-22 23:50:38 WinZip V8.1 SR-1 0%
2009-10-22 23:50:38 WinZip X.x 0%
2011-09-08 13:19:59 winzip "8, 8.1" 0%
2011-09-08 13:19:59 Winzip 10 0%
2011-09-08 13:19:59 WinZip 10.0 0%
2011-09-08 13:20:02 Winzip 11.0 0%
2011-09-08 13:20:02 Winzip 12 0%
2011-09-08 13:20:02 WinZip 5.6 0%
2011-09-08 13:20:02 WinZip 5.6a 0%
2011-09-08 13:20:02 WinZip 6.2 0%
2011-09-08 13:20:02 WinZip 6.3 0%
2011-09-08 13:20:02 WinZip 6.3 SR1 0%
2011-09-08 13:20:02 WinZip 6.x 0%
2011-09-08 13:20:02 WinZip 7.0 SR-1 0%
2011-09-08 13:20:02 winzip 8 0%
2011-09-08 13:20:02 winzip 8, 8.1 0%
2011-09-08 13:20:02 Winzip 8, v8.1 0%
2011-09-08 13:20:02 WinZip 8.0 0%
2011-09-08 13:20:02 WinZip 8.1 0%
2011-09-08 13:20:02 winzip 8x 0%
2011-09-08 13:20:02 winzip 9 0%
2011-09-08 13:20:02 WinZip 9.0 0%
2011-09-08 13:20:02 winzip 9.0 SR-1 0%
2011-09-08 13:20:02 Winzip 95 0%
2011-09-08 13:20:02 WinZip 9SR 0%
2011-09-08 13:20:02 winzip all 0%
2011-09-08 13:20:02 winzip pro 10 10 0%
2011-09-08 13:20:02 WinZip Pro 10.0 0%
2011-09-08 13:20:02 Winzip Pro 11 55%
2011-09-08 13:20:02 Winzip Pro 11.1 0%
2011-09-08 13:20:02 WinZip SE v1.0 0%
2011-09-08 13:20:02 WinZip SE v10 0%
2011-09-08 13:20:04 WinZip v.6.3B4 0%
2011-09-08 13:20:04 WinZip v.8.1 0%
2011-09-08 13:20:04 WinZip v5.6 0%
2011-09-08 13:20:04 WinZip v5.6a 0%
2011-09-08 13:20:04 WinZip v6.0 49%
2011-09-08 13:20:04 WinZip v6.2 0%
2011-09-08 13:20:04 WinZip v6.3 0%
2011-09-08 13:20:04 WinZip v6.3 SR1 0%
2011-09-08 13:20:04 WinZip v6.3b4 for Win-95/NT 0%
2011-09-08 13:20:04 Winzip v6.x 0%
2011-09-08 13:20:04 WinZip v62 0%
2011-09-08 13:20:04 WinZip v7.0 SR-1 0%
2011-09-08 13:20:04 WinZip v8.0 0%
2011-09-08 13:20:04 WinZip v8.1 0%
2011-09-08 13:20:04 Winzip v8.1 NEW 0%
2011-09-08 13:20:04 Winzip v8.1 new! 0%
2011-09-08 13:20:04 WinZip v8.1 SR-1 0%
2011-09-08 13:20:04 WinZip v8.2 0%
2011-09-08 13:20:04 Winzip v8.x 0%
2011-09-08 13:20:04 WinZip V9.0 0%
2011-09-08 13:20:04 WinZip v9.0 by TE 0%
2011-09-08 13:20:07 WinZip v9.0 new 0%
2011-09-08 13:20:07 WinZip v9.0 SR-1 0%
2011-09-08 13:20:07 WinZip v9.0b 0%
2011-09-08 13:20:07 winzip winzip 9.0 0%
2012-12-13 18:46:12 Winzip 17 76%
2012-12-13 18:48:36 Winzip 14 0%
2012-12-13 18:48:37 Winzip 14 pro 0%
2012-12-13 18:48:38 Winzip 14.0 0%
2012-12-13 18:49:13 Winzip 14.5 0%
2012-12-13 18:49:16 WinZip 14.5 Pro 0%
2012-12-13 18:49:25 Winzip 145 0%
2012-12-13 18:49:28 WinZip 15 0%
2012-12-13 18:49:31 WinZip 15.0 0%
2012-12-13 18:49:34 WinZip 15.5 0%
2012-12-13 18:49:45 Winzip 15.5 Pro 0%
2012-12-13 18:49:51 Winzip 15.XX 0%
2012-12-13 18:49:54 Winzip 16 0%
2012-12-13 18:49:57 WinZip 16 Pro Pt Br 0%
2012-12-13 18:50:00 Winzip 16.5 60%
2012-12-13 18:50:10 Winzip 160 0%
2012-12-13 18:50:55 Winzip Pro 0%
2012-12-13 18:51:31 WinZip Pro 12.1 0%
2012-12-13 18:51:34 Winzip Pro 14 0%
2012-12-13 18:51:37 Winzip Pro 14.0 0%